Burlington, NC

6:01 PM EDT on September 23, 2017 (GMT -0400)
Burlington-Alamance Regional

Weather History for KBUY - April, 2013

Change the Weather History Date:

Saturday, April 13, 2013

  Actual Average Record
Temperature  
Mean Temperature 60 °F -  
Max Temperature 75 °F 71 °F 89 °F (1977)
Min Temperature 48 °F 45 °F 28 °F (1989)
Degree Days  
Heating Degree Days 4    
Growing Degree Days 10 (Base 50)    
Moisture  
Dew Point 39 °F    
Average Humidity 44    
Maximum Humidity 71    
Minimum Humidity 25    
Precipitation  
Precipitation 0.00 in - - ()
Sea Level Pressure  
Sea Level Pressure 29.92 in    
Wind  
Wind Speed 5 mph (West)    
Max Wind Speed 13 mph    
Max Gust Speed 18 mph    
Visibility 10 miles    
Events      
Averages and records for this station are not official NWS values.
T = Trace of Precipitation, MM = Missing Value Source: NWS Daily Summary

Daily Weather History Graph

Daily Weather History Graph

Search for Another Location

Airport or City:

Trip Planner

Search our weather history database for the weather conditions in past years. The results will help you decide how hot, cold, wet, or windy it might be!

Date:

Astronomy

Apr. 13, 2013 Rise Set
Actual Time 6:47 AM EDT 7:50 PM EDT
Civil Twilight 6:20 AM EDT 8:16 PM EDT
Nautical Twilight 5:49 AM EDT 8:47 PM EDT
Astronomical Twilight 5:17 AM EDT 9:20 PM EDT
Moon 8:42 AM EDT (4/13) 11:07 PM EDT (4/13)
Length of Visible Light 13h 55m
Length of Day
13h 02m
Waxing Crescent, 10% of the Moon is Illuminated
Apr 13
Waxing Crescent
Apr 18
First Quarter
Apr 25
Full
May 2
Last Quarter
May 9
New

Hourly Weather History & Observations

Time (EDT) Temp. Dew Point Humidity Pressure Visibility Wind Dir Wind Speed Gust Speed Precip Events Conditions
12:54 AM 61.0 °F 39.9 °F 46% 29.80 in 10.0 mi West 6.9 mph - N/A   Clear
1:54 AM 59.0 °F 39.9 °F 49% 29.81 in 10.0 mi Calm Calm - N/A   Clear
2:54 AM 57.0 °F 39.9 °F 53% 29.84 in 10.0 mi NW 4.6 mph - N/A   Clear
3:54 AM 55.0 °F 37.0 °F 51% 29.86 in 10.0 mi NW 4.6 mph - N/A   Clear
4:54 AM 54.0 °F 36.0 °F 51% 29.88 in 10.0 mi NNW 3.5 mph - N/A   Clear
5:54 AM 52.0 °F 36.0 °F 54% 29.89 in 10.0 mi NNW 3.5 mph - N/A   Clear
6:54 AM 48.0 °F 39.0 °F 71% 29.91 in 10.0 mi NW 3.5 mph - N/A   Clear
7:54 AM 51.1 °F 41.0 °F 68% 29.94 in 10.0 mi SW 3.5 mph - N/A   Clear
8:54 AM 59.0 °F 37.9 °F 46% 29.96 in 10.0 mi Calm Calm - N/A   Clear
9:54 AM 63.0 °F 37.0 °F 38% 29.97 in 10.0 mi NNW 8.1 mph - N/A   Clear
10:54 AM 64.0 °F 37.9 °F 38% 29.97 in 10.0 mi WNW 8.1 mph - N/A   Clear
11:54 AM 64.9 °F 37.9 °F 37% 29.97 in 10.0 mi Variable 5.8 mph - N/A   Clear
12:54 PM 66.9 °F 37.9 °F 34% 29.96 in 10.0 mi WNW 10.4 mph - N/A   Clear
1:54 PM 70.0 °F 37.9 °F 31% 29.94 in 10.0 mi SSW 9.2 mph - N/A   Clear
2:54 PM 72.0 °F 37.9 °F 29% 29.92 in 10.0 mi Variable 5.8 mph - N/A   Clear
3:54 PM 73.9 °F 37.0 °F 26% 29.90 in 10.0 mi WSW 12.7 mph 18.4 mph N/A   Clear
4:54 PM 73.9 °F 36.0 °F 25% 29.89 in 10.0 mi West 9.2 mph - N/A   Clear
5:54 PM 73.0 °F 37.0 °F 27% 29.89 in 10.0 mi South 10.4 mph - N/A   Clear
6:54 PM 72.0 °F 37.0 °F 28% 29.90 in 10.0 mi SW 8.1 mph - N/A   Clear
7:54 PM 69.1 °F 37.9 °F 32% 29.91 in 10.0 mi SSW 3.5 mph - N/A   Clear
8:54 PM 64.9 °F 39.0 °F 39% 29.94 in 10.0 mi Calm Calm - N/A   Clear
9:54 PM 57.0 °F 43.0 °F 59% 29.97 in 10.0 mi South 3.5 mph - N/A   Clear
10:54 PM 55.9 °F 43.0 °F 62% 29.99 in 10.0 mi Calm Calm - N/A   Clear
11:54 PM 53.1 °F 44.1 °F 71% 30.01 in 10.0 mi SSW 3.5 mph - N/A   Clear